Location: Unspecified
(44.4377°N, 88.0525°W)
Time: 10:04:48
(UTC-05:00)

Cosmos 2058 - Visible Passes

Search period start: 23 May 2018 00:00
Search period end: 02 June 2018 00:00
Orbit: 564 x 584 km, 82.5° (Epoch: 23 May)

Date Brightness Start Highest point End Pass type
(mag) Time Alt. Az. Time Alt. Az. Time Alt. Az.
23 May 2.9 04:00:41 12° S 04:04:39 82° W 04:08:53 10° N visible
24 May 5.7 02:29:58 10° ESE 02:31:29 12° E 02:33:00 10° ENE visible
24 May 3.0 04:04:08 13° SSW 04:07:49 62° W 04:12:01 10° N visible
25 May 5.5 02:32:03 10° ESE 02:34:31 15° E 02:37:00 10° NE visible
25 May 3.4 04:07:34 14° SSW 04:11:02 46° WNW 04:15:07 10° N visible
26 May 5.2 02:34:44 11° SE 02:37:35 20° E 02:40:39 10° NE visible
26 May 3.8 04:10:58 13° SW 04:14:15 35° WNW 04:18:09 10° N visible
27 May 4.8 02:38:07 15° SE 02:40:39 25° E 02:44:09 10° NNE visible
27 May 4.1 04:14:20 12° SW 04:17:29 27° WNW 04:21:07 10° NNW visible
28 May 4.3 02:41:29 20° SE 02:43:45 33° E 02:47:33 10° NNE visible
28 May 4.5 04:17:42 11° WSW 04:20:45 21° WNW 04:24:02 10° NNW visible
29 May 3.8 02:44:49 25° SSE 02:46:51 43° E 02:50:52 10° NNE visible
29 May 4.8 04:21:15 10° WSW 04:24:01 17° WNW 04:26:48 10° NNW visible
30 May 3.3 02:48:08 30° SSE 02:49:59 58° E 02:54:08 10° NNE visible
30 May 5.1 04:25:16 10° W 04:27:19 13° WNW 04:29:22 10° NW visible
31 May 2.9 02:51:26 35° S 02:53:08 78° E 02:57:21 10° N visible
31 May 5.3 04:30:09 10° WNW 04:30:38 10° WNW 04:31:07 10° WNW visible
01 Jun 2.9 02:54:43 37° SSW 02:56:18 79° W 03:00:31 10° N visible
